When you browse on this site, cookies collect data to enhance your experience and personalize the content and advertising you see.
Visit our Privacy Policy to learn more. By continuing to use the site, you agree to this use of cookies and data.
  • In Portugal
  • List of Countries
  • For 7 days
  • Water Temperature
  • Weather Map
  • Weather Widgets
  • user-avatar
    Login

    Hourly Weather Innsbruck

    Today, 24 February, Monday

    Time Temperature Precipitation Wind Pressure Humidity
    00:00 +1°C° 0.1 mm 2 mps 597 mmHg 92%
    01:00 +1°C° 0.1 mm 2 mps 597 mmHg 94%
    02:00 -1°C° 0.5 mm 2 mps 597 mmHg 95%
    03:00 -1°C° 0.5 mm 2 mps 597 mmHg 96%
    04:00 -1°C° 0.5 mm 2 mps 597 mmHg 97%
    05:00 -1°C° 1.1 mm 2 mps 597 mmHg 97%
    06:00 -1°C° 1.1 mm 2 mps 597 mmHg 97%
    07:00 -1°C° 1.1 mm 2 mps 598 mmHg 97%
    08:00 -1°C° 0.7 mm 2 mps 598 mmHg 97%
    09:00 -1°C° 0.7 mm 2 mps 598 mmHg 97%
    10:00 +1°C° 0.7 mm 2 mps 598 mmHg 96%
    11:00 +2°C° 0.1 mm 1 mps 598 mmHg 95%
    12:00 +3°C° 0.1 mm 1 mps 598 mmHg 93%
    13:00 +3°C° 0.1 mm 1 mps 598 mmHg 91%
    14:00 +4°C° 0 mm 1 mps 597 mmHg 89%
    15:00 +4°C° 0 mm 1 mps 596 mmHg 87%
    16:00 +4°C° 0 mm 1 mps 596 mmHg 86%
    17:00 +3°C° 0 mm 1 mps 595 mmHg 83%
    18:00 +1°C° 0 mm 2 mps 595 mmHg 80%
    19:00 -1°C° 0 mm 2 mps 594 mmHg 78%
    20:00 -1°C° 0 mm 2 mps 593 mmHg 76%
    21:00 -2°C° 0 mm 2 mps 593 mmHg 74%
    22:00 -2°C° 0 mm 2 mps 593 mmHg 72%
    23:00 -2°C° 0 mm 2 mps 592 mmHg 72%

    Tomorrow, 25 February, Tuesday

    Time Temperature Precipitation Wind Pressure Humidity
    00:00 -3°C° 0 mm 2 mps 592 mmHg 73%
    01:00 -3°C° 0 mm 2 mps 591 mmHg 74%
    02:00 -3°C° 0 mm 2 mps 591 mmHg 74%
    03:00 -3°C° 0 mm 2 mps 590 mmHg 75%
    04:00 -3°C° 0 mm 2 mps 590 mmHg 76%
    05:00 -4°C° 0 mm 2 mps 589 mmHg 77%
    06:00 -4°C° 0 mm 2 mps 589 mmHg 77%
    07:00 -4°C° 0 mm 2 mps 589 mmHg 77%
    08:00 -1°C° 0 mm 1 mps 589 mmHg 77%
    09:00 0°C° 0 mm 1 mps 589 mmHg 77%
    10:00 +1°C° 0 mm 1 mps 589 mmHg 77%
    11:00 +2°C° 0 mm 1 mps 589 mmHg 77%
    12:00 +2°C° 0 mm 1 mps 589 mmHg 77%
    13:00 +3°C° 0 mm 1 mps 589 mmHg 77%
    14:00 +2°C° 0 mm 1 mps 588 mmHg 79%
    15:00 +2°C° 0 mm 1 mps 588 mmHg 81%
    16:00 +2°C° 0 mm 1 mps 587 mmHg 82%
    17:00 +1°C° 0.1 mm 1 mps 586 mmHg 86%
    18:00 0°C° 0.1 mm 1 mps 586 mmHg 90%
    19:00 -1°C° 0.1 mm 1 mps 585 mmHg 94%
    20:00 -1°C° 0.3 mm 1 mps 585 mmHg 94%
    21:00 -2°C° 0.3 mm 1 mps 585 mmHg 95%
    22:00 -2°C° 0.3 mm 1 mps 584 mmHg 95%
    23:00 -2°C° 0.3 mm 1 mps 584 mmHg 96%

    Day after tomorrow, 26 February, Wednesday

    Time Temperature Precipitation Wind Pressure Humidity
    00:00 -3°C° 0.3 mm 1 mps 583 mmHg 96%
    01:00 -3°C° 0.3 mm 1 mps 583 mmHg 96%
    02:00 -3°C° 0.5 mm 1 mps 582 mmHg 96%
    03:00 -4°C° 0.5 mm 1 mps 582 mmHg 96%
    04:00 -4°C° 0.5 mm 1 mps 581 mmHg 96%
    05:00 -4°C° 1 mm 1 mps 581 mmHg 95%
    06:00 -6°C° 1 mm 1 mps 580 mmHg 94%
    07:00 -6°C° 1 mm 1 mps 580 mmHg 92%
    08:00 -7°C° 0.4 mm 2 mps 579 mmHg 87%
    09:00 -8°C° 0.4 mm 3 mps 579 mmHg 82%
    10:00 -8°C° 0.4 mm 3 mps 579 mmHg 77%
    11:00 -10°C° 0.3 mm 4 mps 579 mmHg 75%
    12:00 -10°C° 0.3 mm 4 mps 579 mmHg 74%
    13:00 -10°C° 0.3 mm 4 mps 580 mmHg 73%
    14:00 -11°C° 0.2 mm 4 mps 580 mmHg 71%
    15:00 -10°C° 0.2 mm 3 mps 580 mmHg 70%
    16:00 -12°C° 0.2 mm 3 mps 580 mmHg 68%
    17:00 -12°C° 0.3 mm 3 mps 580 mmHg 76%
    18:00 -13°C° 0.3 mm 3 mps 581 mmHg 84%
    19:00 -13°C° 0.3 mm 3 mps 581 mmHg 92%
    20:00 -13°C° 0.7 mm 3 mps 582 mmHg 93%
    21:00 -13°C° 0.7 mm 3 mps 583 mmHg 93%
    22:00 -13°C° 0.7 mm 3 mps 583 mmHg 93%
    23:00 -13°C° 0.7 mm 3 mps 584 mmHg 93%

    27 February, Thursday

    Time Temperature Precipitation Wind Pressure Humidity
    00:00 -12°C° 0.7 mm 2 mps 584 mmHg 93%
    01:00 -13°C° 0.7 mm 2 mps 584 mmHg 93%
    02:00 -13°C° 0.3 mm 2 mps 584 mmHg 92%
    03:00 -14°C° 0.3 mm 2 mps 584 mmHg 92%
    04:00 -15°C° 0.3 mm 2 mps 584 mmHg 91%
    05:00 -15°C° 0.3 mm 2 mps 585 mmHg 92%
    06:00 -14°C° 0.3 mm 2 mps 585 mmHg 93%
    07:00 -12°C° 0.3 mm 1 mps 586 mmHg 94%
    08:00 -13°C° 0.3 mm 2 mps 587 mmHg 87%
    09:00 -12°C° 0.3 mm 2 mps 588 mmHg 81%
    10:00 -10°C° 0.3 mm 2 mps 588 mmHg 75%
    11:00 -10°C° 0.1 mm 2 mps 588 mmHg 66%
    12:00 -9°C° 0.1 mm 2 mps 588 mmHg 57%
    13:00 -7°C° 0.1 mm 1 mps 588 mmHg 48%
    14:00 -8°C° 0 mm 2 mps 588 mmHg 51%
    15:00 -8°C° 0 mm 2 mps 587 mmHg 54%
    16:00 -7°C° 0 mm 2 mps 587 mmHg 57%
    17:00 -8°C° 0.3 mm 2 mps 587 mmHg 67%
    18:00 -10°C° 0.3 mm 3 mps 586 mmHg 77%
    19:00 -12°C° 0.3 mm 3 mps 586 mmHg 87%
    20:00 -12°C° 1.1 mm 3 mps 586 mmHg 88%
    21:00 -10°C° 1.1 mm 3 mps 586 mmHg 90%
    22:00 -10°C° 1.1 mm 3 mps 586 mmHg 92%
    23:00 -10°C° 0.2 mm 3 mps 585 mmHg 91%

    28 February, Friday

    Time Temperature Precipitation Wind Pressure Humidity
    00:00 -10°C° 0.2 mm 3 mps 585 mmHg 90%
    01:00 -10°C° 0.2 mm 3 mps 585 mmHg 90%
    02:00 -9°C° 0.3 mm 3 mps 585 mmHg 89%
    03:00 -8°C° 0.3 mm 2 mps 585 mmHg 89%
    04:00 -8°C° 0.3 mm 2 mps 585 mmHg 89%
    05:00 -8°C° 0.1 mm 2 mps 585 mmHg 88%
    06:00 -8°C° 0.1 mm 2 mps 585 mmHg 86%
    07:00 -7°C° 0.1 mm 2 mps 586 mmHg 85%
    08:00 -6°C° 0 mm 2 mps 586 mmHg 84%
    09:00 -4°C° 0 mm 2 mps 587 mmHg 83%
    10:00 -2°C° 0 mm 2 mps 588 mmHg 83%
    11:00 -2°C° 0 mm 2 mps 589 mmHg 83%
    12:00 -2°C° 0 mm 2 mps 589 mmHg 83%
    13:00 +1°C° 0 mm 1 mps 589 mmHg 84%
    14:00 +1°C° 0 mm 1 mps 589 mmHg 85%
    15:00 0°C° 0 mm 1 mps 589 mmHg 86%
    16:00 0°C° 0 mm 1 mps 589 mmHg 87%
    17:00 -1°C° 0 mm 1 mps 588 mmHg 87%
    18:00 -2°C° 0 mm 1 mps 588 mmHg 87%
    19:00 -3°C° 0 mm 1 mps 587 mmHg 87%
    20:00 -6°C° 0 mm 2 mps 587 mmHg 83%
    21:00 -6°C° 0 mm 2 mps 587 mmHg 80%
    22:00 -6°C° 0 mm 2 mps 586 mmHg 77%
    23:00 -6°C° 0 mm 2 mps 586 mmHg 76%

    29 February, Saturday

    Time Temperature Precipitation Wind Pressure Humidity
    00:00 -6°C° 0 mm 2 mps 586 mmHg 76%
    01:00 -6°C° 0 mm 2 mps 585 mmHg 76%
    02:00 -7°C° 0 mm 3 mps 585 mmHg 76%
    03:00 -7°C° 0 mm 3 mps 584 mmHg 76%
    04:00 -7°C° 0 mm 3 mps 584 mmHg 76%
    05:00 -7°C° 0 mm 3 mps 583 mmHg 76%
    06:00 -8°C° 0 mm 3 mps 583 mmHg 76%
    07:00 -8°C° 0 mm 3 mps 582 mmHg 77%
    08:00 -6°C° 0 mm 3 mps 583 mmHg 78%
    09:00 -5°C° 0 mm 3 mps 583 mmHg 80%
    10:00 -2°C° 0 mm 2 mps 584 mmHg 82%
    11:00 -2°C° 0.1 mm 2 mps 584 mmHg 83%
    12:00 -1°C° 0.1 mm 2 mps 584 mmHg 84%
    13:00 -1°C° 0.1 mm 2 mps 584 mmHg 86%
    14:00 -2°C° 0.8 mm 2 mps 584 mmHg 88%
    15:00 -3°C° 0.8 mm 2 mps 584 mmHg 91%
    16:00 -3°C° 0.8 mm 2 mps 584 mmHg 94%
    17:00 -4°C° 0.3 mm 2 mps 584 mmHg 94%
    18:00 -4°C° 0.3 mm 1 mps 584 mmHg 93%
    19:00 -6°C° 0.3 mm 1 mps 584 mmHg 93%
    20:00 -6°C° 0 mm 1 mps 584 mmHg 89%
    21:00 -6°C° 0 mm 1 mps 583 mmHg 84%
    22:00 -7°C° 0 mm 1 mps 583 mmHg 80%
    23:00 -8°C° 0 mm 2 mps 583 mmHg 80%
    Show more